Location: Vinland
(47.7731°N, 122.6974°W)
Time: 03:33:44
(UTC+00:00)

N. Korean satellite - Visible Passes

Search period start: 03 February 2023 00:00
Search period end: 13 February 2023 00:00
Orbit: 407 x 443 km, 97.3° (Epoch: 02 February)

Date Brightness Start Highest point End Pass type
(mag) Time Alt. Az. Time Alt. Az. Time Alt. Az.
03 Feb 8.1 13:10:44 10° NNE 13:13:41 32° E 13:16:39 10° SSE visible
03 Feb 7.9 14:43:37 10° NNW 14:45:44 16° WNW 14:47:50 10° WSW visible
04 Feb 9.9 12:30:23 10° E 12:30:44 10° E 12:31:04 10° E visible
04 Feb 6.4 14:00:07 10° N 14:03:17 52° WNW 14:06:28 10° SSW visible
05 Feb 7.7 13:17:27 10° NNE 13:20:33 39° E 13:23:38 10° S visible
05 Feb 8.1 14:50:43 10° NNW 14:52:30 14° WNW 14:54:16 10° W visible
06 Feb 9.7 12:36:05 10° ENE 12:37:29 12° E 12:38:54 10° ESE visible
06 Feb 6.6 14:06:52 10° N 14:09:58 42° WNW 14:13:05 10° SW visible
07 Feb 7.3 13:23:58 10° NNE 13:27:08 48° E 13:30:19 10° S visible
07 Feb 8.3 14:57:40 10° NW 14:59:01 12° WNW 15:00:21 10° W visible
08 Feb 9.5 12:42:06 10° NE 12:44:00 15° E 12:45:54 10° SE visible
08 Feb 6.9 14:13:22 10° N 14:16:23 35° WNW 14:19:25 10° SW visible
09 Feb 6.8 13:30:14 10° NNE 13:33:28 59° E 13:36:43 10° S visible
10 Feb 9.3 12:48:00 10° NE 12:50:15 17° E 12:52:30 10° SE visible
10 Feb 7.1 14:19:38 10° N 14:22:33 30° WNW 14:25:28 10° SW visible
11 Feb 6.5 13:36:17 10° NNE 13:39:33 72° ESE 13:42:50 10° S visible
12 Feb 9.1 12:53:44 10° NE 12:56:14 20° E 12:58:44 10° SE visible
12 Feb 7.3 14:25:41 10° N 14:28:28 26° WNW 14:31:15 10° SW visible
